Weather History for KHNR - October, 2013

Change the Weather History Date:

Sunday, October 27, 2013

  Actual Average Record
Temperature  
Mean Temperature 44 °F -  
Max Temperature 64 °F 59 °F 82 °F (1966)
Min Temperature 24 °F 39 °F 19 °F (1969)
Degree Days  
Heating Degree Days 21    
Moisture  
Dew Point 30 °F    
Average Humidity 67    
Maximum Humidity 100    
Minimum Humidity 32    
Precipitation  
Precipitation 0.00 in - - ()
Sea Level Pressure  
Sea Level Pressure 29.99 in    
Wind  
Wind Speed 5 mph (South)    
Max Wind Speed 18 mph    
Max Gust Speed 23 mph    
Visibility 10 miles    
Events      
Averages and records for this station are not official NWS values.
T = Trace of Precipitation, MM = Missing Value Source: NWS Daily Summary

Daily Weather History Graph

Daily Weather History Graph

Search for Another Location

Airport or City:

Trip Planner

Search our weather history database for the weather conditions in past years. The results will help you decide how hot, cold, wet, or windy it might be!

Date:

Astronomy

Oct. 27, 2013 Rise Set
Actual Time 7:47 AM CDT 6:22 PM CDT
Civil Twilight 7:19 AM CDT 6:50 PM CDT
Nautical Twilight 6:46 AM CDT 7:23 PM CDT
Astronomical Twilight 6:14 AM CDT 7:55 PM CDT
Moon 12:40 AM CDT (10/27) 2:36 PM CDT (10/27)
Length of Visible Light 11h 31m
Length of Day
10h 34m
Last Quarter, 43% of the Moon is Illuminated
Oct 27
Last Quarter
Nov 3
New
Nov 9
First Quarter
Nov 17
Full
Nov 25
Last Quarter

Hourly Weather History & Observations

Time (CDT) Temp. Windchill Dew Point Humidity Pressure Visibility Wind Dir Wind Speed Gust Speed Precip Events Conditions
12:15 AM 26.6 °F - 24.8 °F 93% 30.17 in 10.0 mi Calm Calm - N/A   Clear
12:35 AM 26.6 °F - 24.8 °F 93% 30.16 in 10.0 mi Calm Calm - N/A   Clear
12:55 AM 26.6 °F 22.6 °F 24.8 °F 93% 30.15 in 10.0 mi SSW 3.5 mph - N/A   Clear
1:15 AM 24.8 °F - 21.2 °F 86% 30.14 in 10.0 mi Calm Calm - N/A   Clear
1:35 AM 26.6 °F - 24.8 °F 93% 30.14 in 10.0 mi Calm Calm - N/A   Clear
1:55 AM 26.6 °F - 24.8 °F 93% 30.14 in 10.0 mi Calm Calm - N/A   Clear
2:15 AM 24.8 °F - 23.0 °F 93% 30.13 in 10.0 mi Calm Calm - N/A   Clear
2:35 AM 24.8 °F 20.5 °F 23.0 °F 93% 30.12 in 10.0 mi SSW 3.5 mph - N/A   Clear
2:55 AM 24.8 °F - 23.0 °F 93% 30.12 in 10.0 mi Calm Calm - N/A   Clear
3:15 AM 24.8 °F - 23.0 °F 93% 30.11 in 10.0 mi Calm Calm - N/A   Clear
3:35 AM 24.8 °F 19.1 °F 23.0 °F 93% 30.10 in 10.0 mi SSW 4.6 mph - N/A   Clear
3:55 AM 24.8 °F 19.1 °F 24.8 °F 100% 30.10 in 10.0 mi SSW 4.6 mph - N/A   Clear
4:15 AM 24.8 °F 19.1 °F 24.8 °F 100% 30.10 in 10.0 mi South 4.6 mph - N/A   Clear
4:35 AM 24.8 °F 19.1 °F 23.0 °F 93% 30.09 in 10.0 mi South 4.6 mph - N/A   Clear
4:55 AM 24.8 °F 19.1 °F 24.8 °F 100% 30.09 in 10.0 mi South 4.6 mph - N/A   Clear
5:15 AM 24.8 °F 19.1 °F 23.0 °F 93% 30.08 in 10.0 mi South 4.6 mph - N/A   Clear
5:35 AM 24.8 °F 19.1 °F 23.0 °F 93% 30.07 in 10.0 mi SSW 4.6 mph - N/A   Clear
5:55 AM 24.8 °F 20.5 °F 24.8 °F 100% 30.07 in 10.0 mi SSW 3.5 mph - N/A   Clear
6:15 AM 24.8 °F 17.9 °F 24.8 °F 100% 30.06 in 10.0 mi South 5.8 mph - N/A   Clear
6:35 AM 24.8 °F 19.1 °F 24.8 °F 100% 30.06 in 10.0 mi SSW 4.6 mph - N/A   Clear
6:55 AM 24.8 °F 19.1 °F 23.0 °F 93% 30.06 in 10.0 mi SSW 4.6 mph - N/A   Clear
7:15 AM 26.6 °F 19.1 °F 24.8 °F 93% 30.05 in 10.0 mi South 6.9 mph - N/A   Clear
7:35 AM 26.6 °F 20.0 °F 24.8 °F 93% 30.04 in 10.0 mi South 5.8 mph - N/A   Clear
7:55 AM 26.6 °F 20.0 °F 24.8 °F 93% 30.04 in 10.0 mi South 5.8 mph - N/A   Clear
8:15 AM 26.6 °F 19.1 °F 24.8 °F 93% 30.04 in 10.0 mi South 6.9 mph - N/A   Clear
8:35 AM 28.4 °F 21.2 °F 26.6 °F 93% 30.03 in 10.0 mi South 6.9 mph - N/A   Clear
8:55 AM 30.2 °F 23.4 °F 28.4 °F 93% 30.03 in 10.0 mi South 6.9 mph - N/A   Clear
9:15 AM 33.8 °F 26.4 °F 28.4 °F 81% 30.03 in 10.0 mi SSW 9.2 mph - N/A   Clear
9:35 AM 35.6 °F 28.0 °F 30.2 °F 81% 30.03 in 10.0 mi SSW 10.4 mph - N/A   Clear
9:55 AM 37.4 °F 29.8 °F 30.2 °F 75% 30.02 in 10.0 mi South 11.5 mph - N/A   Clear
10:15 AM 41.0 °F 35.8 °F 32.0 °F 70% 30.01 in 10.0 mi South 8.1 mph - N/A   Clear
10:35 AM 44.6 °F 39.2 °F 32.0 °F 61% 30.00 in 10.0 mi South 10.4 mph 16.1 mph N/A   Clear
10:55 AM 44.6 °F 38.4 °F 32.0 °F 61% 29.99 in 10.0 mi South 12.7 mph - N/A   Clear
11:15 AM 46.4 °F 40.4 °F 32.0 °F 57% 29.98 in 10.0 mi South 13.8 mph - N/A   Clear
11:35 AM 50.0 °F - 32.0 °F 50% 29.98 in 10.0 mi South 13.8 mph - N/A   Clear
11:55 AM 51.8 °F - 32.0 °F 47% 29.97 in 10.0 mi South 11.5 mph - N/A   Clear
12:15 PM 53.6 °F - 32.0 °F 44% 29.96 in 10.0 mi South 11.5 mph 19.6 mph N/A   Clear
12:35 PM 55.4 °F - 32.0 °F 41% 29.95 in 10.0 mi South 15.0 mph - N/A   Clear
12:55 PM 57.2 °F - 32.0 °F 38% 29.94 in 10.0 mi South 12.7 mph 19.6 mph N/A   Clear
1:15 PM 57.2 °F - 33.8 °F 41% 29.92 in 10.0 mi South 15.0 mph 21.9 mph N/A   Clear
1:35 PM 59.0 °F - 33.8 °F 39% 29.91 in 10.0 mi South 16.1 mph - N/A   Clear
1:55 PM 60.8 °F - 33.8 °F 36% 29.90 in 10.0 mi South 16.1 mph 21.9 mph N/A   Clear
2:15 PM 60.8 °F - 33.8 °F 36% 29.89 in 10.0 mi SSW 18.4 mph - N/A   Clear
2:35 PM 60.8 °F - 33.8 °F 36% 29.89 in 10.0 mi South 16.1 mph 23.0 mph N/A   Clear
2:55 PM 62.6 °F - 33.8 °F 34% 29.88 in 10.0 mi South 13.8 mph 21.9 mph N/A   Clear
3:15 PM 64.4 °F - 33.8 °F 32% 29.88 in 10.0 mi South 12.7 mph 21.9 mph N/A   Clear
3:35 PM 64.4 °F - 33.8 °F 32% 29.87 in 10.0 mi SSW 15.0 mph 23.0 mph N/A   Clear
3:55 PM 64.4 °F - 33.8 °F 32% 29.88 in 10.0 mi South 15.0 mph - N/A   Clear
4:15 PM 64.4 °F - 33.8 °F 32% 29.87 in 10.0 mi SSW 15.0 mph 21.9 mph N/A   Clear
4:35 PM 64.4 °F - 33.8 °F 32% 29.87 in 10.0 mi SSW 16.1 mph - N/A   Clear
4:55 PM 64.4 °F - 33.8 °F 32% 29.87 in 10.0 mi SSW 15.0 mph - N/A   Clear
5:15 PM 64.4 °F - 33.8 °F 32% 29.87 in 10.0 mi SSW 11.5 mph - N/A   Clear
5:35 PM 64.4 °F - 33.8 °F 32% 29.88 in - SSW 10.4 mph - N/A   Clear
5:55 PM 62.6 °F - 35.6 °F 37% 29.88 in 10.0 mi South 8.1 mph - N/A   Clear
6:15 PM 60.8 °F - 35.6 °F 39% 29.88 in 10.0 mi South 5.8 mph - N/A   Clear
6:35 PM 55.4 °F - 33.8 °F 44% 29.89 in 10.0 mi Calm Calm - N/A   Clear
6:55 PM 53.6 °F - 33.8 °F 47% 29.90 in 10.0 mi South 4.6 mph - N/A   Clear
7:15 PM 50.0 °F - 33.8 °F 54% 29.90 in 10.0 mi South 4.6 mph - N/A   Clear
7:35 PM 50.0 °F - 33.8 °F 54% 29.91 in 10.0 mi South 5.8 mph - N/A   Clear
7:55 PM 50.0 °F - 33.8 °F 54% 29.92 in 10.0 mi South 4.6 mph - N/A   Clear
8:15 PM 50.0 °F - 33.8 °F 54% 29.93 in 10.0 mi South 4.6 mph - N/A   Clear
8:35 PM 48.2 °F - 33.8 °F 58% 29.93 in 10.0 mi South 4.6 mph - N/A   Clear
8:55 PM 48.2 °F - 33.8 °F 58% 29.94 in 10.0 mi South 4.6 mph - N/A   Clear
9:15 PM 48.2 °F - 35.6 °F 62% 29.94 in 10.0 mi Calm Calm - N/A   Clear
9:35 PM 48.2 °F - 33.8 °F 58% 29.95 in 10.0 mi Calm Calm - N/A   Clear
9:55 PM 48.2 °F - 35.6 °F 62% 29.95 in 10.0 mi South 4.6 mph - N/A   Clear
10:15 PM 46.4 °F - 33.8 °F 62% 29.96 in 10.0 mi Calm Calm - N/A   Clear
10:35 PM 41.0 °F - 32.0 °F 70% 29.97 in 10.0 mi Calm Calm - N/A   Clear
10:55 PM 41.0 °F 33.1 °F 33.8 °F 76% 29.99 in 10.0 mi North 15.0 mph - N/A   Clear
11:15 PM 46.4 °F 44.3 °F 35.6 °F 66% 30.00 in 10.0 mi Variable 4.6 mph 12.7 mph N/A   Clear
11:35 PM 46.4 °F 43.5 °F 35.6 °F 66% 30.01 in 10.0 mi NNE 5.8 mph - N/A   Clear
11:55 PM 44.6 °F 42.2 °F 33.8 °F 66% 30.01 in 10.0 mi NNE 4.6 mph - N/A   Clear